Address 0xf1a14c2ae17e65fb0770a3bce7e6bd5f124e181c

 
 
Txn Hash Method
Block
From
To
Value [Txn Fee]
0x6dd37e15f7e3024b691b1be9cd00c9829fdb5d74d0aba1cfffcfb4b6c5881323Fight99436602021-08-11 17:45:2042 days 22 hrs ago0xf1a14c2ae17e65fb0770a3bce7e6bd5f124e181cOUT CryptoBlades: Gameplay0 BNB0.00074738
0x6bedd51e7eefdfde7a0bf7a3ada7f0d8e2c90f6f0b66d743cdeb7349e66d197bFight99436552021-08-11 17:45:0142 days 22 hrs ago0xf1a14c2ae17e65fb0770a3bce7e6bd5f124e181cOUT CryptoBlades: Gameplay0 BNB0.00075002
0x1b827b473935bde034e736fdeb800425abe87622ec946ee85f81ef83b45af7b3Fight99397832021-08-11 14:22:2343 days 1 hr ago0xf1a14c2ae17e65fb0770a3bce7e6bd5f124e181cOUT CryptoBlades: Gameplay0 BNB0.00074617
0xc7d7c048dc81838c224d0069369959ad5bd4d24e0d042df7f00859da0433aca3Fight99397662021-08-11 14:21:2543 days 1 hr ago0xf1a14c2ae17e65fb0770a3bce7e6bd5f124e181cOUT CryptoBlades: Gameplay0 BNB0.00075123
0x5a9d3de8e74eb467692c3a2ae14adaa9204966d019983344998cb6c9bb77a0d0Fight99317672021-08-11 7:34:3743 days 8 hrs ago0xf1a14c2ae17e65fb0770a3bce7e6bd5f124e181cOUT CryptoBlades: Gameplay0 BNB0.000745565
0x862eda3f8678a6726d62b3e35f1bfb676998bd7021f5b62d2266e8256123a3d9Fight99306712021-08-11 6:39:4943 days 9 hrs ago0xf1a14c2ae17e65fb0770a3bce7e6bd5f124e181cOUT CryptoBlades: Gameplay0 BNB0.00074997
0xb227c0d88d1a155e2d43dee44fcdb46c552c398d3ae76ee2ca4b8350d138a696Fight99280462021-08-11 4:28:1343 days 11 hrs ago0xf1a14c2ae17e65fb0770a3bce7e6bd5f124e181cOUT CryptoBlades: Gameplay0 BNB0.00074997
0x5eb5e0577976a2f9acdb64faa962cff8c5379df470a59dd61cd37e6b7c4f8e9cFight99280322021-08-11 4:27:3143 days 11 hrs ago0xf1a14c2ae17e65fb0770a3bce7e6bd5f124e181cOUT CryptoBlades: Gameplay0 BNB0.000751785
0x332ac34a25dfcf03eaba30f9bb67b35c8938698c89adac6f7a89838ebd00f53dFight99175962021-08-10 19:43:2843 days 20 hrs ago0xf1a14c2ae17e65fb0770a3bce7e6bd5f124e181cOUT CryptoBlades: Gameplay0 BNB0.000745565
0xb34510dcc5401c4f0cb2c13634d581bc345617e4dd7480ece3f89a5289f91ff1Fight99152322021-08-10 17:45:0043 days 22 hrs ago0xf1a14c2ae17e65fb0770a3bce7e6bd5f124e181cOUT CryptoBlades: Gameplay0 BNB0.00075123
0xbf2823a3d8b2a0539e07a1c80624970ace133455e5122565bde264833c93443dFight99140222021-08-10 16:44:2343 days 23 hrs ago0xf1a14c2ae17e65fb0770a3bce7e6bd5f124e181cOUT CryptoBlades: Gameplay0 BNB0.00074738
0x9fa0089a4196abb9d903b97ffc19bb3e66a7721d341e9c9ff87b9bf95911f7d5Fight99106602021-08-10 13:56:0044 days 2 hrs ago0xf1a14c2ae17e65fb0770a3bce7e6bd5f124e181cOUT CryptoBlades: Gameplay0 BNB0.000745615
0x7be4c8b7c629f517762b5bf873106b5c3631ccd482b09260cc2c58f24a81701fFight99052662021-08-10 9:22:2644 days 6 hrs ago0xf1a14c2ae17e65fb0770a3bce7e6bd5f124e181cOUT CryptoBlades: Gameplay0 BNB0.000751785
0xe83bb43e0f307c7fc4c3eba7b3584213a1a3b00d15937a4c04d066e72334ab5bFight99016522021-08-10 5:55:4544 days 10 hrs ago0xf1a14c2ae17e65fb0770a3bce7e6bd5f124e181cOUT CryptoBlades: Gameplay0 BNB0.00074997
0x04d4d26fe70a022c54e50771a4927832070eda6231878a9d277d64273c69da76Fight99016442021-08-10 5:55:2144 days 10 hrs ago0xf1a14c2ae17e65fb0770a3bce7e6bd5f124e181cOUT CryptoBlades: Gameplay0 BNB0.000750625
0x38051d460252612ceace85d118e7746aad101efbaa46ddfcbb99e44474da4d8dFight99016392021-08-10 5:55:0644 days 10 hrs ago0xf1a14c2ae17e65fb0770a3bce7e6bd5f124e181cOUT CryptoBlades: Gameplay0 BNB0.000750625
0xe304a6414a0d49d29292472fffed4e21200933c45078d26e73a65029f103605dFight98894482021-08-09 19:42:4244 days 20 hrs ago0xf1a14c2ae17e65fb0770a3bce7e6bd5f124e181cOUT CryptoBlades: Gameplay0 BNB0.00069891
0xd2c737f424b8c5d00de458a8c597ae3d019a7625b2db5211115f2a301dfa932aFight98852692021-08-09 16:13:2944 days 23 hrs ago0xf1a14c2ae17e65fb0770a3bce7e6bd5f124e181cOUT CryptoBlades: Gameplay0 BNB0.000699465
0x54904960a30ffda98520afa76d2fd8fff0cb207484fd2fc2abb1bffc4a098159Fight98852572021-08-09 16:12:5344 days 23 hrs ago0xf1a14c2ae17e65fb0770a3bce7e6bd5f124e181cOUT CryptoBlades: Gameplay0 BNB0.00070513
0x75fca5e72a2b5ee0ab1c3e4f6ce87876fe44e216af72c97ae1302e798dfc3deaFight98852472021-08-09 16:12:2344 days 23 hrs ago0xf1a14c2ae17e65fb0770a3bce7e6bd5f124e181cOUT CryptoBlades: Gameplay0 BNB0.0008037
0xe22eb08403a4004f3023548d827b8a8f1d5145d3a23c130b844adc0c56b3ffa3Transfer98818262021-08-09 13:17:4145 days 2 hrs ago0xf1a14c2ae17e65fb0770a3bce7e6bd5f124e181cOUT CryptoBlades: SKILL Token0 BNB0.0001209
0xa6f14592830b020f65cdeb6f7cea6f54a6535a2c349e578bf97b09813192a2d0Withdraw98818112021-08-09 13:16:5645 days 2 hrs ago0xf1a14c2ae17e65fb0770a3bce7e6bd5f124e181cOUT 0xd6b2d8f59bf30cfe7009fb4fc00a7b13ca836a2c0 BNB0.00052285
0x9304c653a71f552294845504060ccc3716de010c5dc24bf1eafbbf8259daa961Stake Unclaimed ...98817992021-08-09 13:16:2045 days 2 hrs ago0xf1a14c2ae17e65fb0770a3bce7e6bd5f124e181cOUT CryptoBlades: Gameplay0 BNB0.000505415
0xc7fe54338fec8e21fbb4c2325fdf6d88fb69f12409f7bca6e44d0ed56f2d8b44Fight98754832021-08-09 7:50:0245 days 8 hrs ago0xf1a14c2ae17e65fb0770a3bce7e6bd5f124e181cOUT CryptoBlades: Gameplay0 BNB0.000701035
0xf74ded32ad930db686752173f7a952a139a2b15805ea40f10f95c67e4d08f3f2Fight98740212021-08-09 6:35:1945 days 9 hrs ago0xf1a14c2ae17e65fb0770a3bce7e6bd5f124e181cOUT CryptoBlades: Gameplay0 BNB0.00070387
[ Download CSV Export 
Latest 1 internal transaction
Parent Txn Hash Block From To Value
0xe59048748d246a961644d2ed841ec68ec7571cf26477b0f318cddac6e7878ff096664752021-08-01 19:37:3752 days 20 hrs ago 0xcf0febd3f17cef5b47b0cd257acf6025c5bff3b70xf1a14c2ae17e65fb0770a3bce7e6bd5f124e181c0.52380090063663 BNB
[ Download CSV Export 
Loading

Contract Name:
0 BNB

Compiler Version
0

Optimization Enabled:
0 BNB

Other Settings:
-NA-
Block Transaction Gas Used Reward
Age Block Fee Address BC Fee Address Voting Power Jailed Incoming
Block Uncle Number Difficulty Gas Used Reward
Loading
Loading
Make sure to use the "Vote Down" button for any spammy posts, and the "Vote Up" for interesting conversations.